カタログに戻る

STARLINK-37294

運用中通信VLEO
NORAD 68559·PAYLOAD·🇺🇸 United States

打ち上げ Apr 2, 2026 から Cape Canaveral Space Force Station

Loading…

次のパス (今後24時間)

TLE

最新Source: CelesTrak SupGP

元期: Sep 14, 2026, 22:44 UTC

1 68559C 26070T   26257.94770833 -.00025482  00000+0 -75269-3 0  2572
2 68559  53.1577 199.5176 0001334  90.5480  34.2359 15.34411369    12

AllMySatでSTARLINK-37294をリアルタイム追跡

Download on the App Store